Location: Beaver Dam Church
(34.5318°N, 88.9828°W)
Time: 23:14:15
(UTC+00:00)

OAO 1 Rocket - Pass Details

Date: 29 October 2020
Orbit: 743 x 755 km, 35.0° (Epoch: 04 December)

Event Time Altitude Azimuth Distance (km) Brightness Sun altitude
Rises 23:41:30 0° 265° (W) 3,193 10.1 -8.2°
Reaches altitude 10° 23:43:58 10° 266° (W) 2,268 8.6 -8.7°
Maximum altitude 23:49:20 86° 356° (N) 755 4.5 -9.8°
Enters shadow 23:53:58 14° 85° (E) 1,999 6.0 -10.7°
